NEPALISAT-1 (44329 NORAD) Tracking and Keplerian Element Data

This shows tracking and keplerian element data for the satellite.

Feedback or suggestion? Click here.




ElementValue
Catalog44329
NameNEPALISAT-1
Epoch Orbit525
Epoch Day201.84272872
Epoch Year2019
RAAN194.0407
Inclination51.6398
Eccentricity0.0006855
Argument of Perigee199.6168
Mean Anonmoly160.4559
Mean Motion15.52281182
Decay Rate3.7E-05
L11 44329U 98067QE 19201.84272872 .00003700 00000-0 67301-4 0 9996
L22 44329 51.6398 194.0407 0006855 199.6168 160.4559 15.52281182 5252

Live tracking and technical data element details for NEPALISAT-1 (NORAD 44329). NEPALISAT-1 can be tracked NOW for your location showing map with azimuth and elevation plus other details from your city location.

Track the satellite on the map from your city or location and see movement details for azimuth, elevation, latitude, longitude, range, height, and movement on the map or in text.







IsCatalogInMostPopularTable: catalog: 44329, numindb: 8
Update: records affected: 1



GetName: 44329 NEPALISAT-1

Hit Count: updated at: Sun, 21 Jul 2019 20:57:33 GMT